• Em Portugal
  • Lista de países
  • Para 7 dias
  • Temperatura da água
  • Mapas de satélite
  • Mapa do tempo
  • Widgets de tempo
  • user-avatar
    Iniciar Sessão

    Previsão horária em Barreiro

    Hoje, 26 Julho, Quarta-feira

    Tempo Temperatura Precipitação Vento Pressão Humidade
    00:00 +21°C° 0 mm 6 m/s 760 mmHg 70%
    01:00 +20°C° 0 mm 5 m/s 760 mmHg 74%
    02:00 +20°C° 0 mm 5 m/s 760 mmHg 78%
    03:00 +20°C° 0 mm 5 m/s 760 mmHg 79%
    04:00 +19°C° 0 mm 5 m/s 760 mmHg 80%
    05:00 +19°C° 0 mm 4 m/s 760 mmHg 82%
    06:00 +22°C° 0 mm 5 m/s 760 mmHg 69%
    07:00 +26°C° 0 mm 5 m/s 760 mmHg 56%
    08:00 +29°C° 0 mm 5 m/s 760 mmHg 44%
    09:00 +33°C° 0 mm 5 m/s 760 mmHg 38%
    10:00 +35°C° 0 mm 5 m/s 760 mmHg 32%
    11:00 +37°C° 0 mm 5 m/s 760 mmHg 26%
    12:00 +39°C° 0 mm 6 m/s 760 mmHg 25%
    13:00 +39°C° 0 mm 7 m/s 760 mmHg 25%
    14:00 +39°C° 0 mm 7 m/s 759 mmHg 25%
    15:00 +38°C° 0 mm 8 m/s 759 mmHg 27%
    16:00 +35°C° 0 mm 8 m/s 759 mmHg 30%
    17:00 +33°C° 0 mm 8 m/s 759 mmHg 33%
    18:00 +31°C° 0 mm 8 m/s 760 mmHg 39%
    19:00 +27°C° 0 mm 7 m/s 760 mmHg 44%
    20:00 +24°C° 0 mm 7 m/s 760 mmHg 49%
    21:00 +23°C° 0 mm 6 m/s 761 mmHg 53%
    22:00 +22°C° 0 mm 6 m/s 761 mmHg 56%
    23:00 +21°C° 0 mm 5 m/s 761 mmHg 60%

    Amanhã, 27 Julho, Quinta-feira

    Tempo Temperatura Precipitação Vento Pressão Humidade
    00:00 +20°C° 0 mm 5 m/s 761 mmHg 64%
    01:00 +20°C° 0 mm 5 m/s 761 mmHg 69%
    02:00 +19°C° 0 mm 5 m/s 760 mmHg 73%
    03:00 +19°C° 0 mm 5 m/s 760 mmHg 77%
    04:00 +18°C° 0 mm 4 m/s 761 mmHg 81%
    05:00 +18°C° 0 mm 4 m/s 761 mmHg 84%
    06:00 +21°C° 0 mm 5 m/s 761 mmHg 72%
    07:00 +25°C° 0 mm 5 m/s 761 mmHg 59%
    08:00 +27°C° 0 mm 5 m/s 761 mmHg 47%
    09:00 +30°C° 0 mm 5 m/s 761 mmHg 40%
    10:00 +33°C° 0 mm 6 m/s 761 mmHg 33%
    11:00 +35°C° 0 mm 6 m/s 761 mmHg 26%
    12:00 +36°C° 0 mm 6 m/s 761 mmHg 27%
    13:00 +36°C° 0 mm 7 m/s 761 mmHg 27%
    14:00 +36°C° 0 mm 7 m/s 760 mmHg 28%
    15:00 +34°C° 0 mm 7 m/s 760 mmHg 33%
    16:00 +33°C° 0 mm 7 m/s 761 mmHg 39%
    17:00 +31°C° 0 mm 8 m/s 761 mmHg 44%
    18:00 +28°C° 0 mm 7 m/s 761 mmHg 56%
    19:00 +26°C° 0 mm 6 m/s 761 mmHg 67%
    20:00 +23°C° 0 mm 6 m/s 762 mmHg 78%
    21:00 +22°C° 0 mm 5 m/s 762 mmHg 83%
    22:00 +22°C° 0 mm 5 m/s 762 mmHg 87%
    23:00 +21°C° 0 mm 4 m/s 762 mmHg 92%

    Depois de amanhã, 28 Julho, Sexta-feira

    Tempo Temperatura Precipitação Vento Pressão Humidade
    00:00 +21°C° 0 mm 4 m/s 762 mmHg 93%
    01:00 +21°C° 0 mm 4 m/s 762 mmHg 94%
    02:00 +21°C° 0 mm 4 m/s 762 mmHg 95%
    03:00 +20°C° 0 mm 4 m/s 762 mmHg 94%
    04:00 +20°C° 0 mm 4 m/s 762 mmHg 94%
    05:00 +20°C° 0 mm 4 m/s 762 mmHg 94%
    06:00 +23°C° 0 mm 4 m/s 762 mmHg 82%
    07:00 +26°C° 0 mm 4 m/s 762 mmHg 69%
    08:00 +29°C° 0 mm 5 m/s 762 mmHg 56%
    09:00 +30°C° 0 mm 5 m/s 762 mmHg 50%
    10:00 +33°C° 0 mm 5 m/s 762 mmHg 44%
    11:00 +35°C° 0 mm 6 m/s 762 mmHg 37%
    12:00 +35°C° 0 mm 6 m/s 762 mmHg 37%
    13:00 +36°C° 0 mm 7 m/s 762 mmHg 36%
    14:00 +37°C° 0 mm 8 m/s 762 mmHg 36%
    15:00 +34°C° 0 mm 8 m/s 762 mmHg 40%
    16:00 +32°C° 0 mm 8 m/s 762 mmHg 44%
    17:00 +29°C° 0 mm 8 m/s 762 mmHg 48%
    18:00 +27°C° 0 mm 7 m/s 762 mmHg 55%
    19:00 +24°C° 0 mm 6 m/s 763 mmHg 61%
    20:00 +22°C° 0 mm 6 m/s 763 mmHg 68%
    21:00 +21°C° 0 mm 5 m/s 763 mmHg 72%
    22:00 +20°C° 0 mm 5 m/s 764 mmHg 77%
    23:00 +19°C° 0 mm 4 m/s 764 mmHg 81%

    29 Julho, Sábado

    Tempo Temperatura Precipitação Vento Pressão Humidade
    00:00 +18°C° 0 mm 4 m/s 763 mmHg 84%
    01:00 +18°C° 0 mm 4 m/s 763 mmHg 87%
    02:00 +17°C° 0 mm 4 m/s 763 mmHg 90%
    03:00 +17°C° 0 mm 4 m/s 763 mmHg 90%
    04:00 +17°C° 0 mm 3 m/s 763 mmHg 90%
    05:00 +17°C° 0 mm 3 m/s 763 mmHg 90%
    06:00 +20°C° 0 mm 4 m/s 763 mmHg 77%
    07:00 +23°C° 0 mm 4 m/s 764 mmHg 65%
    08:00 +27°C° 0 mm 4 m/s 764 mmHg 52%
    09:00 +29°C° 0 mm 5 m/s 764 mmHg 48%
    10:00 +32°C° 0 mm 5 m/s 764 mmHg 44%
    11:00 +34°C° 0 mm 5 m/s 764 mmHg 40%
    12:00 +34°C° 0 mm 6 m/s 764 mmHg 40%
    13:00 +34°C° 0 mm 6 m/s 763 mmHg 40%
    14:00 +35°C° 0 mm 7 m/s 763 mmHg 40%
    15:00 +33°C° 0 mm 7 m/s 763 mmHg 45%
    16:00 +32°C° 0 mm 7 m/s 763 mmHg 49%
    17:00 +30°C° 0 mm 6 m/s 763 mmHg 54%
    18:00 +28°C° 0 mm 6 m/s 763 mmHg 64%
    19:00 +26°C° 0 mm 5 m/s 764 mmHg 74%
    20:00 +23°C° 0 mm 5 m/s 764 mmHg 84%
    21:00 +22°C° 0 mm 4 m/s 764 mmHg 87%
    22:00 +22°C° 0 mm 4 m/s 764 mmHg 91%
    23:00 +21°C° 0 mm 4 m/s 764 mmHg 94%

    30 Julho, Domingo

    Tempo Temperatura Precipitação Vento Pressão Humidade
    00:00 +21°C° 0 mm 4 m/s 763 mmHg 94%
    01:00 +21°C° 0 mm 3 m/s 763 mmHg 94%
    02:00 +21°C° 0 mm 3 m/s 762 mmHg 93%
    03:00 +21°C° 0 mm 3 m/s 762 mmHg 93%
    04:00 +21°C° 0 mm 3 m/s 762 mmHg 92%
    05:00 +21°C° 0 mm 3 m/s 762 mmHg 91%
    06:00 +22°C° 0 mm 3 m/s 762 mmHg 80%
    07:00 +25°C° 0 mm 3 m/s 762 mmHg 69%
    08:00 +27°C° 0 mm 3 m/s 762 mmHg 58%
    09:00 +29°C° 0 mm 4 m/s 762 mmHg 48%
    10:00 +32°C° 0 mm 4 m/s 762 mmHg 39%
    11:00 +34°C° 0 mm 5 m/s 761 mmHg 30%
    12:00 +35°C° 0 mm 6 m/s 761 mmHg 29%
    13:00 +35°C° 0 mm 6 m/s 761 mmHg 29%
    14:00 +35°C° 0 mm 7 m/s 760 mmHg 28%
    15:00 +34°C° 0 mm 7 m/s 760 mmHg 33%
    16:00 +33°C° 0 mm 7 m/s 760 mmHg 38%
    17:00 +30°C° 0 mm 7 m/s 760 mmHg 44%
    18:00 +28°C° 0 mm 6 m/s 760 mmHg 53%
    19:00 +26°C° 0 mm 6 m/s 760 mmHg 63%
    20:00 +23°C° 0 mm 6 m/s 761 mmHg 73%
    21:00 +22°C° 0 mm 5 m/s 760 mmHg 78%
    22:00 +21°C° 0 mm 4 m/s 760 mmHg 83%
    23:00 +20°C° 0 mm 4 m/s 760 mmHg 88%

    31 Julho, Segunda-feira

    Tempo Temperatura Precipitação Vento Pressão Humidade
    00:00 +20°C° 0 mm 4 m/s 760 mmHg 89%
    01:00 +19°C° 0 mm 3 m/s 760 mmHg 91%
    02:00 +19°C° 0 mm 3 m/s 759 mmHg 92%
    03:00 +19°C° 0 mm 3 m/s 759 mmHg 93%
    04:00 +19°C° 0 mm 2 m/s 759 mmHg 93%
    05:00 +19°C° 0 mm 2 m/s 759 mmHg 94%
    06:00 +21°C° 0 mm 3 m/s 760 mmHg 79%
    07:00 +24°C° 0 mm 3 m/s 760 mmHg 65%
    08:00 +26°C° 0 mm 3 m/s 760 mmHg 51%
    09:00 +28°C° 0 mm 4 m/s 760 mmHg 44%
    10:00 +29°C° 0 mm 4 m/s 759 mmHg 38%
    11:00 +32°C° 0 mm 5 m/s 759 mmHg 31%
    12:00 +30°C° 0 mm 5 m/s 759 mmHg 32%
    13:00 +30°C° 0 mm 6 m/s 759 mmHg 34%
    14:00 +29°C° 0 mm 6 m/s 759 mmHg 35%
    15:00 +28°C° 0 mm 6 m/s 759 mmHg 38%
    16:00 +27°C° 0 mm 6 m/s 759 mmHg 41%
    17:00 +26°C° 0 mm 6 m/s 759 mmHg 43%
    18:00 +24°C° 0 mm 6 m/s 760 mmHg 51%
    19:00 +22°C° 0 mm 5 m/s 760 mmHg 58%
    20:00 +20°C° 0 mm 4 m/s 760 mmHg 66%
    21:00 +20°C° 0 mm 4 m/s 761 mmHg 70%
    22:00 +19°C° 0 mm 3 m/s 761 mmHg 74%
    23:00 +18°C° 0 mm 3 m/s 761 mmHg 78%
    Mostrar mais